St Hubert Airport

Jump to: basic info | weather | frequencies | runways | comments

Related pages: nearby airports | nearby navaids | notams | map

Basic information (top)

Codes: EBSH
Location: lon 50.035900, lat 5.404250, elev 1,930 ft / 588 m msl
Status: small_airport

Weather (top)

Current conditions for Florennes Air Base 32nm (59km) WNW (rec'd 2014/10/23 13:25Z):

EBFS 231325Z 20007KT 8000 FEW006 BKN008 10/09 Q1023 GRN GRN TEMPO YLO

Airport forecast for Florennes Air Base 32nm (59km) WNW (rec'd 2014/09/29 19:36Z):

TAF TAF COR EBFS 291727Z 2919/3007 18006KT 9999 SCT050 BKN070 
      TEMPO 2919/2920 22008G18KT 6000 -SHRA SCT030 BKN050 
      BECMG 3002/3004 VRB03KT 2500 BR

Frequencies (top)

Verify before use: may be inaccurate or out of date.

INFO: 122.175 MHz ()

Runways (top)

05/23: 1,969 x 623 ft (600 x 190 m) — grass — not lighted

14/32: 2,625 x 492 ft (800 x 150 m) — grass — not lighted

Latest comments (top)

Airport web site: http://www.sainthubert-airport.com/ R ... [read]

More... (top)

See also NOTAMs and nearby airports and navaids, or visit the St Hubert Airport page at the main OurAirports website..